Hourly Data Report for July 06, 2022

DRYDEN REGIONAL
ONTARIO
Current Station Operator: NAVCAN

49°49'39.000" N
92°44'39.000" W
412.70 m
6032125
71527
YHD

Download Data

Hourly Data (July 2022)
Hourly Data Report for July 6, 2022
TIME
LST
Temp Definition
°C
Dew Point Definition
°C
Rel Hum Definition
%
Precip. Amount Definition
mm

Wind Dir Definition
10's deg

Wind Spd Definition
km/h
Visibility Definition
km
Stn Press Definition
kPa
Hmdx Definition


Wind Chill Definition


Weather Definition


00:00 14.7 11.5 81 0.0 4 8 16.1 97.00     LegendNANA
01:00 13.8 12.9 94 0.0 5 5 16.1 97.02     LegendNANA
02:00 13.2 11.6 90 0.0 8 8 16.1 97.05     LegendNANA
03:00 13.0 11.9 93 0.0 7 8 16.1 97.04     LegendNANA
04:00 13.3 11.5 89 0.0 15 9 16.1 97.05     LegendNANA
05:00 14.4 12.6 89 0.0 16 15 16.1 97.07     LegendNANA
06:00 15.8 13.5 86 0.0 19 11 16.1 97.13     LegendNANA
07:00 17.6 12.9 74 0.0 16 15 16.1 97.11     LegendNANA
08:00 19.0 12.9 67 0.0 16 13 16.1 97.11     LegendNANA
09:00 18.6 13.0 70 0.0 15 15 16.1 97.11     LegendNANA
10:00 20.5 12.0 58 0.0 19 17 16.1 97.11     LegendNANA
11:00 21.8 11.9 53 0.0 18 11 16.1 97.08     LegendNANA
12:00 22.6 11.2 48 0.0 14 15 16.1 97.02     LegendNANA
13:00 23.1 10.3 44 0.0 19 13 16.1 96.98 25   LegendNANA
14:00 24.0 9.0 38 0.0 21 15 16.1 96.88 25   LegendNANA
15:00 24.7 10.0 39 0.0 21 17 16.1 96.81 26   LegendNANA
16:00 24.6 10.2 40 0.0 22 18 16.1 96.74 26   LegendNANA
17:00 23.7 10.9 44 0.0 20 21 16.1 96.69 25   LegendNANA
18:00 22.8 12.5 52 0.0 19 13 16.1 96.65 25   LegendNANA
19:00 22.3 12.1 52 0.0 19 15 16.1 96.58 25   LegendNANA
20:00 21.4 12.4 56 0.0 19 15 16.1 96.56     LegendNANA
21:00 20.8 12.7 59 0.0 19 17 16.1 96.49     LegendNANA
22:00 20.2 14.0 67 0.0 22 11 16.1 96.52     Rain
23:00 16.4 15.6 95 2.0 22 8 16.1 96.52     LegendNANA

Notes on Data Quality.

Legend

  • E = Estimated
  • M = Missing
  • NA = Not Available*
  • [empty] = Indicates an unobserved value
Date modified: